Time,TemperatureF,DewpointF,PressureIn,WindDirection,WindDirectionDegrees,WindSpeedMPH,WindSpeedGustMPH,Humidity,HourlyPrecipIn,Conditions,Clouds,dailyrainin,SoftwareType,DateUTC
2013-01-13 07:51:00,48.0,47.1,29.79,North,0,0.0,0.0,97,0.00,,,0.31,,2013-01-13 06:51:00,
2013-01-13 07:56:00,48.0,46.8,29.79,North,0,0.0,0.0,96,0.00,,,0.31,,2013-01-13 06:56:00,
2013-01-13 08:01:00,48.0,46.8,29.79,North,0,0.0,0.0,96,0.00,,,0.31,,2013-01-13 07:01:00,
2013-01-13 08:06:00,47.8,46.9,29.79,North,0,0.0,0.0,97,0.00,,,0.31,,2013-01-13 07:06:00,
2013-01-13 08:11:00,47.5,46.2,29.79,North,0,0.0,0.0,96,0.00,,,0.31,,2013-01-13 07:11:00,
2013-01-13 08:16:00,47.5,46.6,29.79,North,0,0.0,0.0,97,0.00,,,0.31,,2013-01-13 07:16:00,
2013-01-13 08:21:00,47.5,46.6,29.79,North,0,0.0,0.0,97,0.00,,,0.31,,2013-01-13 07:21:00,
2013-01-13 08:26:00,47.1,46.2,29.79,North,0,0.0,0.0,97,0.00,,,0.31,,2013-01-13 07:26:00,
2013-01-13 08:31:00,47.1,46.2,29.79,North,0,0.0,0.0,97,0.00,,,0.31,,2013-01-13 07:31:00,
2013-01-13 08:36:00,47.1,46.2,29.79,North,0,0.0,0.0,97,0.00,,,0.31,,2013-01-13 07:36:00,
2013-01-13 08:41:00,47.3,46.4,29.79,North,0,0.0,0.0,97,0.00,,,0.31,,2013-01-13 07:41:00,
2013-01-13 08:46:00,47.3,46.4,29.79,North,0,0.0,0.0,97,0.00,,,0.31,,2013-01-13 07:46:00,
2013-01-13 08:51:00,47.3,46.4,29.79,North,0,0.0,0.0,97,0.00,,,0.31,,2013-01-13 07:51:00,
2013-01-13 08:56:00,47.3,46.4,29.79,North,0,0.0,0.0,97,0.00,,,0.31,,2013-01-13 07:56:00,
2013-01-13 09:01:00,47.3,46.4,29.79,North,0,0.0,0.0,97,0.00,,,0.31,,2013-01-13 08:01:00,
2013-01-13 09:06:00,47.3,46.4,29.79,North,0,0.0,0.0,97,0.00,,,0.31,,2013-01-13 08:06:00,
2013-01-13 09:11:00,47.3,46.4,29.79,North,0,0.0,0.0,97,0.00,,,0.31,,2013-01-13 08:11:00,
2013-01-13 09:16:00,47.3,46.4,29.79,North,0,0.0,0.0,97,0.00,,,0.31,,2013-01-13 08:16:00,
2013-01-13 09:21:00,47.3,46.4,29.79,North,0,0.0,0.0,97,0.00,,,0.31,,2013-01-13 08:21:00,
2013-01-13 09:26:00,48.6,48.0,29.79,North,0,0.0,0.0,98,0.00,,,0.31,,2013-01-13 08:26:00,
2013-01-13 09:31:00,48.9,48.2,29.79,North,0,0.0,0.0,98,0.00,,,0.31,,2013-01-13 08:31:00,
2013-01-13 09:36:00,49.6,49.3,29.79,North,0,0.0,0.0,99,0.00,,,0.31,,2013-01-13 08:36:00,
2013-01-13 09:41:00,50.2,49.5,29.79,North,0,0.0,0.0,98,0.00,,,0.31,,2013-01-13 08:41:00,
2013-01-13 09:46:00,50.2,49.5,29.79,North,0,0.0,0.0,98,0.00,,,0.31,,2013-01-13 08:46:00,
2013-01-13 09:51:00,50.9,50.0,29.79,North,0,0.0,0.0,97,0.00,,,0.31,,2013-01-13 08:51:00,
2013-01-13 09:56:00,51.3,49.8,29.76,North,0,0.0,0.0,95,0.00,,,0.31,,2013-01-13 08:56:00,
2013-01-13 10:01:00,51.4,49.6,29.76,North,0,0.0,0.0,94,0.00,,,0.31,,2013-01-13 09:01:00,
2013-01-13 10:06:00,51.8,49.8,29.76,North,0,0.0,0.0,93,0.00,,,0.31,,2013-01-13 09:06:00,
2013-01-13 10:11:00,52.2,49.8,29.76,North,0,0.0,0.0,92,0.00,,,0.31,,2013-01-13 09:11:00,
2013-01-13 10:16:00,52.3,49.5,29.76,North,0,0.0,0.0,90,0.00,,,0.31,,2013-01-13 09:16:00,
2013-01-13 10:21:00,52.5,49.6,29.76,North,0,0.0,0.0,90,0.00,,,0.31,,2013-01-13 09:21:00,
2013-01-13 10:26:00,52.5,49.3,29.76,North,0,0.0,0.0,89,0.00,,,0.31,,2013-01-13 09:26:00,
2013-01-13 10:31:00,52.5,49.3,29.76,North,0,0.0,0.0,89,0.00,,,0.31,,2013-01-13 09:31:00,
2013-01-13 10:36:00,52.5,49.3,29.76,North,0,0.0,0.0,89,0.00,,,0.31,,2013-01-13 09:36:00,
2013-01-13 10:41:00,52.5,49.3,29.76,North,0,0.0,0.0,89,0.00,,,0.31,,2013-01-13 09:41:00,
2013-01-13 10:46:00,52.5,49.3,29.76,North,0,0.0,0.0,89,0.00,,,0.31,,2013-01-13 09:46:00,
2013-01-13 10:51:00,52.5,49.3,29.76,North,0,0.0,0.0,89,0.00,,,0.31,,2013-01-13 09:51:00,
2013-01-13 10:56:00,52.5,49.3,29.76,North,0,0.0,0.0,89,0.00,,,0.31,,2013-01-13 09:56:00,
2013-01-13 11:01:00,52.7,49.1,29.76,North,0,0.0,0.0,88,0.00,,,0.31,,2013-01-13 10:01:00,
2013-01-13 11:06:00,52.5,48.9,29.76,North,0,0.0,0.0,88,0.00,,,0.31,,2013-01-13 10:06:00,
2013-01-13 11:11:00,52.2,48.9,29.76,North,0,0.0,0.0,89,0.02,,,0.33,,2013-01-13 10:11:00,
2013-01-13 11:16:00,51.6,48.7,29.76,North,0,0.0,0.0,90,0.02,,,0.33,,2013-01-13 10:16:00,
2013-01-13 11:21:00,51.4,48.7,29.76,North,0,0.0,0.0,91,0.02,,,0.33,,2013-01-13 10:21:00,
2013-01-13 11:26:00,51.1,48.7,29.76,North,0,0.0,0.0,92,0.04,,,0.34,,2013-01-13 10:26:00,
2013-01-13 11:31:00,50.7,48.7,29.76,North,0,0.0,0.0,93,0.04,,,0.34,,2013-01-13 10:31:00,
2013-01-13 11:36:00,50.5,48.7,29.76,North,0,0.0,0.0,94,0.07,,,0.37,,2013-01-13 10:36:00,
2013-01-13 11:41:00,50.7,49.3,29.76,North,0,0.0,0.0,95,0.07,,,0.37,,2013-01-13 10:41:00,
2013-01-13 11:46:00,50.7,49.3,29.76,North,0,0.0,0.0,95,0.07,,,0.37,,2013-01-13 10:46:00,
2013-01-13 11:51:00,50.7,49.5,29.76,North,0,0.0,0.0,96,0.07,,,0.37,,2013-01-13 10:51:00,
2013-01-13 11:56:00,50.9,49.6,29.73,North,0,0.0,0.0,96,0.07,,,0.37,,2013-01-13 10:56:00,
2013-01-13 12:01:00,51.1,49.8,29.73,North,0,0.0,0.0,96,0.00,,,0.37,,2013-01-13 11:01:00,
2013-01-13 12:06:00,51.1,49.6,29.73,North,0,0.0,0.0,95,0.00,,,0.37,,2013-01-13 11:06:00,
2013-01-13 12:11:00,51.3,49.5,29.73,North,0,0.0,0.0,94,0.00,,,0.37,,2013-01-13 11:11:00,
2013-01-13 12:16:00,51.6,49.8,29.73,North,0,0.0,0.0,94,0.00,,,0.37,,2013-01-13 11:16:00,
2013-01-13 12:21:00,51.6,49.8,29.73,North,0,0.0,0.0,94,0.00,,,0.37,,2013-01-13 11:21:00,
2013-01-13 12:26:00,52.0,49.1,29.73,North,0,0.0,0.0,90,0.00,,,0.37,,2013-01-13 11:26:00,
2013-01-13 12:31:00,52.2,48.6,29.73,North,0,0.0,0.0,88,0.00,,,0.37,,2013-01-13 11:31:00,
2013-01-13 12:36:00,52.2,48.6,29.70,North,0,0.0,0.0,88,0.00,,,0.37,,2013-01-13 11:36:00,
2013-01-13 12:41:00,52.3,48.6,29.70,North,0,0.0,0.0,87,0.00,,,0.37,,2013-01-13 11:41:00,
2013-01-13 12:46:00,52.3,48.6,29.70,North,0,0.0,0.0,87,0.00,,,0.37,,2013-01-13 11:46:00,
2013-01-13 12:51:00,52.3,48.6,29.70,North,0,0.0,0.0,87,0.00,,,0.37,,2013-01-13 11:51:00,
2013-01-13 12:56:00,52.0,48.4,29.70,North,0,0.0,0.0,88,0.00,,,0.37,,2013-01-13 11:56:00,
2013-01-13 13:01:00,52.0,48.4,29.70,North,0,0.0,0.0,88,0.00,,,0.37,,2013-01-13 12:01:00,
2013-01-13 13:06:00,52.0,48.4,29.70,North,0,0.0,0.0,88,0.00,,,0.37,,2013-01-13 12:06:00,
2013-01-13 13:11:00,52.0,48.4,29.70,North,0,0.0,0.0,88,0.00,,,0.37,,2013-01-13 12:11:00,
2013-01-13 13:16:00,52.2,48.6,29.70,North,0,0.0,0.0,88,0.00,,,0.37,,2013-01-13 12:16:00,
2013-01-13 13:21:00,52.0,48.4,29.70,North,0,0.0,0.0,88,0.00,,,0.37,,2013-01-13 12:21:00,
2013-01-13 13:26:00,52.0,48.4,29.67,North,0,0.0,0.0,88,0.00,,,0.37,,2013-01-13 12:26:00,
2013-01-13 13:31:00,52.0,48.4,29.67,North,0,0.0,0.0,88,0.00,,,0.37,,2013-01-13 12:31:00,
2013-01-13 13:36:00,52.0,48.4,29.67,North,0,0.0,0.0,88,0.00,,,0.37,,2013-01-13 12:36:00,
2013-01-13 13:41:00,52.0,48.4,29.67,North,0,0.0,0.0,88,0.00,,,0.37,,2013-01-13 12:41:00,
2013-01-13 13:46:00,52.3,49.1,29.67,North,0,0.0,0.0,89,0.00,,,0.37,,2013-01-13 12:46:00,
2013-01-13 13:51:00,52.3,49.1,29.67,North,0,0.0,0.0,89,0.00,,,0.37,,2013-01-13 12:51:00,
2013-01-13 13:56:00,52.3,49.1,29.67,North,0,0.0,0.0,89,0.00,,,0.37,,2013-01-13 12:56:00,
2013-01-13 14:06:00,52.3,49.1,29.67,North,0,0.0,0.0,89,0.00,,,0.37,,2013-01-13 13:06:00,
2013-01-13 14:11:00,52.3,49.1,29.67,North,0,0.0,0.0,89,0.00,,,0.37,,2013-01-13 13:11:00,
2013-01-13 14:16:00,52.3,49.1,29.67,North,0,0.0,0.0,89,0.00,,,0.37,,2013-01-13 13:16:00,
2013-01-13 14:21:00,52.2,49.3,29.67,North,0,0.0,0.0,90,0.00,,,0.37,,2013-01-13 13:21:00,
2013-01-13 14:26:00,52.2,49.3,29.67,North,0,0.0,0.0,90,0.00,,,0.37,,2013-01-13 13:26:00,
2013-01-13 14:36:00,52.0,49.6,29.67,North,0,0.0,0.0,92,0.00,,,0.37,,2013-01-13 13:36:00,
2013-01-13 17:06:00,55.0,51.8,29.67,East,90,5.3,8.0,89,0.00,,,0.37,,2013-01-13 16:06:00,
2013-01-13 17:11:00,55.0,51.8,29.67,East,90,5.3,8.0,89,0.00,,,0.37,,2013-01-13 16:11:00,
2013-01-13 17:16:00,55.0,51.8,29.67,East,90,5.3,8.0,89,0.00,,,0.37,,2013-01-13 16:16:00,
2013-01-13 17:21:00,55.0,51.8,29.67,North,0,0.0,0.0,89,0.00,,,0.37,,2013-01-13 16:21:00,
2013-01-13 17:26:00,55.2,52.0,29.67,North,0,0.0,0.0,89,0.00,,,0.37,,2013-01-13 16:26:00,
2013-01-13 17:31:00,55.2,52.0,29.67,North,0,0.0,0.0,89,0.00,,,0.37,,2013-01-13 16:31:00,
2013-01-13 17:36:00,55.2,52.0,29.67,North,0,0.0,0.0,89,0.00,,,0.37,,2013-01-13 16:36:00,
2013-01-13 17:41:00,55.2,51.6,29.64,North,0,0.0,0.0,88,0.00,,,0.37,,2013-01-13 16:41:00,
2013-01-13 17:46:00,55.2,51.6,29.64,North,0,0.0,0.0,88,0.00,,,0.37,,2013-01-13 16:46:00,
2013-01-13 17:51:00,55.2,51.6,29.64,North,0,0.0,0.0,88,0.00,,,0.37,,2013-01-13 16:51:00,
2013-01-13 17:56:00,55.2,51.6,29.64,North,0,0.0,0.0,88,0.00,,,0.37,,2013-01-13 16:56:00,
2013-01-13 18:01:00,55.4,51.8,29.64,North,0,0.0,0.0,88,0.00,,,0.37,,2013-01-13 17:01:00,
2013-01-13 18:06:00,55.4,51.8,29.64,North,0,0.0,0.0,88,0.00,,,0.37,,2013-01-13 17:06:00,
2013-01-13 18:11:00,55.4,51.8,29.64,North,0,0.0,0.0,88,0.00,,,0.37,,2013-01-13 17:11:00,
2013-01-13 18:16:00,55.4,51.8,29.64,North,0,0.0,0.0,88,0.00,,,0.37,,2013-01-13 17:16:00,
2013-01-13 18:21:00,55.4,51.8,29.64,North,0,0.0,0.0,88,0.00,,,0.37,,2013-01-13 17:21:00,
2013-01-13 18:26:00,55.4,51.8,29.64,North,0,0.0,0.0,88,0.00,,,0.37,,2013-01-13 17:26:00,
2013-01-13 18:31:00,55.4,51.8,29.64,North,0,0.0,0.0,88,0.00,,,0.37,,2013-01-13 17:31:00,
2013-01-13 19:31:00,55.2,52.5,29.64,South,180,4.0,5.3,91,0.02,,,0.39,,2013-01-13 18:31:00,
2013-01-13 19:36:00,55.4,52.7,29.64,South,180,4.0,5.3,91,0.02,,,0.39,,2013-01-13 18:36:00,
2013-01-13 19:41:00,55.6,52.9,29.64,North,0,0.0,0.0,91,0.02,,,0.39,,2013-01-13 18:41:00,
2013-01-13 19:46:00,55.8,53.1,29.64,North,0,0.0,0.0,91,0.02,,,0.39,,2013-01-13 18:46:00,
2013-01-13 19:51:00,55.8,53.1,29.64,North,0,0.0,0.0,91,0.02,,,0.39,,2013-01-13 18:51:00,
2013-01-13 19:56:00,55.8,53.1,29.64,North,0,0.0,0.0,91,0.02,,,0.39,,2013-01-13 18:56:00,
2013-01-13 20:01:00,55.8,53.1,29.64,North,0,0.0,0.0,91,0.00,,,0.39,,2013-01-13 19:01:00,
2013-01-13 20:06:00,55.8,53.1,29.64,North,0,0.0,0.0,91,0.00,,,0.39,,2013-01-13 19:06:00,
2013-01-13 20:11:00,55.8,53.4,29.64,North,0,0.0,0.0,92,0.00,,,0.39,,2013-01-13 19:11:00,
2013-01-13 20:16:00,55.2,52.2,29.64,North,0,0.0,0.0,90,0.07,,,0.46,,2013-01-13 19:16:00,
2013-01-13 20:21:00,55.2,53.1,29.64,North,0,0.0,0.0,93,0.11,,,0.50,,2013-01-13 19:21:00,
2013-01-13 20:26:00,55.2,53.1,29.61,North,0,0.0,0.0,93,0.11,,,0.50,,2013-01-13 19:26:00,
2013-01-13 20:31:00,53.2,49.5,29.64,North,0,0.0,0.0,87,0.11,,,0.50,,2013-01-13 19:31:00,
2013-01-13 20:40:00,52.3,49.1,29.64,North,0,0.0,0.0,89,0.22,,,0.61,,2013-01-13 19:40:00,
2013-01-13 20:45:00,52.2,48.9,29.64,North,0,0.0,0.0,89,0.41,,,0.81,,2013-01-13 19:45:00,
2013-01-13 20:50:00,52.2,48.9,29.64,North,0,0.0,0.0,89,0.54,,,0.94,,2013-01-13 19:50:00,
2013-01-13 20:55:00,52.2,48.9,29.64,North,0,0.0,0.0,89,0.74,,,1.13,,2013-01-13 19:55:00,
2013-01-13 21:00:00,52.2,48.9,29.64,North,0,0.0,0.0,89,0.11,,,1.24,,2013-01-13 20:00:00,
2013-01-13 21:05:00,52.2,48.9,29.64,North,0,0.0,0.0,89,0.20,,,1.33,,2013-01-13 20:05:00,
2013-01-13 21:10:00,52.2,48.9,29.64,North,0,0.0,0.0,89,0.33,,,1.47,,2013-01-13 20:10:00,
2013-01-13 21:15:00,52.2,48.9,29.64,North,0,0.0,0.0,89,0.35,,,1.49,,2013-01-13 20:15:00,
2013-01-13 21:20:00,52.2,48.9,29.64,North,0,0.0,0.0,89,0.37,,,1.51,,2013-01-13 20:20:00,
2013-01-13 21:25:00,52.2,48.9,29.64,North,0,0.0,0.0,89,0.41,,,1.55,,2013-01-13 20:25:00,
2013-01-13 21:30:00,52.2,48.9,29.64,North,0,0.0,0.0,89,0.44,,,1.58,,2013-01-13 20:30:00,
2013-01-13 21:35:00,50.4,50.0,29.64,North,0,0.0,0.0,99,0.44,,,1.58,,2013-01-13 20:35:00,
2013-01-13 21:40:00,50.4,50.0,29.64,North,0,0.0,0.0,99,0.44,,,1.58,,2013-01-13 20:40:00,
2013-01-13 21:45:00,50.4,50.0,29.64,North,0,0.0,0.0,99,0.46,,,1.60,,2013-01-13 20:45:00,
2013-01-13 21:50:00,50.7,50.0,29.64,North,0,0.0,0.0,98,0.46,,,1.60,,2013-01-13 20:50:00,
2013-01-13 21:55:00,50.9,49.6,29.64,North,0,0.0,0.0,96,0.46,,,1.60,,2013-01-13 20:55:00,
2013-01-13 22:00:00,51.1,49.3,29.64,North,0,0.0,0.0,94,0.00,,,1.60,,2013-01-13 21:00:00,
2013-01-13 22:05:00,51.3,49.3,29.64,North,0,0.0,0.0,93,0.00,,,1.60,,2013-01-13 21:05:00,
2013-01-13 22:10:00,51.3,49.5,29.64,North,0,0.0,0.0,94,0.00,,,1.60,,2013-01-13 21:10:00,
2013-01-13 22:15:00,51.1,49.6,29.64,North,0,0.0,0.0,95,0.00,,,1.60,,2013-01-13 21:15:00,
2013-01-13 22:20:00,50.9,49.6,29.64,North,0,0.0,0.0,96,0.02,,,1.62,,2013-01-13 21:20:00,
2013-01-13 22:25:00,50.7,49.8,29.64,North,0,0.0,0.0,97,0.02,,,1.62,,2013-01-13 21:25:00,
2013-01-13 22:30:00,50.7,49.8,29.64,North,0,0.0,0.0,97,0.02,,,1.62,,2013-01-13 21:30:00,
2013-01-13 22:35:00,50.7,50.0,29.64,North,0,0.0,0.0,98,0.04,,,1.64,,2013-01-13 21:35:00,
2013-01-13 22:40:00,50.7,50.0,29.64,North,0,0.0,0.0,98,0.04,,,1.64,,2013-01-13 21:40:00,
2013-01-13 22:46:00,50.9,50.5,29.64,North,0,0.0,0.0,99,0.04,,,1.64,,2013-01-13 21:46:00,
2013-01-13 22:51:00,50.9,50.5,29.64,North,0,0.0,0.0,99,0.07,,,1.66,,2013-01-13 21:51:00,
2013-01-13 22:56:00,50.7,50.4,29.64,North,0,0.0,0.0,99,0.09,,,1.68,,2013-01-13 21:56:00,